This is the latest recevied weather packets stored in our database for station/object N2OCK. If no packets are shown the sender has not sent any weather packets the latest 10 day(s).
| Time | Temp. | Humidity | Pressure | Rain* | Wind** | Luminosity | Snow |
|---|---|---|---|---|---|---|---|
| 1777567974 | 11.67° C | 91% | 1007 hPa | 0 mm | - | 81 W/m² | - |
| 1777567670 | 11.67° C | 91% | 1007 hPa | 0 mm | - | 181 W/m² | - |
| 1777567367 | 11.67° C | 91% | 1006.7 hPa | 0 mm | - | 110 W/m² | - |
| 1777567065 | 11.67° C | 91% | 1006.9 hPa | 0 mm | - | 84 W/m² | - |
| 1777566763 | 12.22° C | 89% | 1007 hPa | 0 mm | - | 97 W/m² | - |
| 1777566461 | 12.22° C | 88% | 1006.9 hPa | 0 mm | - | 174 W/m² | - |
| 1777566158 | 11.67° C | 89% | 1007.1 hPa | 0 mm | - | 236 W/m² | - |
| 1777565853 | 11.11° C | 91% | 1007 hPa | 0 mm | - | 264 W/m² | - |
| 1777565550 | 11.67° C | 91% | 1007.3 hPa | 0 mm | - | 200 W/m² | - |
| 1777565247 | 11.67° C | 91% | 1007.4 hPa | 0 mm | - | 274 W/m² | - |
| 1777564943 | 11.11° C | 92% | 1007.3 hPa | 0 mm | - | 272 W/m² | - |
| 1777564638 | 11.11° C | 93% | 1007.4 hPa | 0 mm | - | 240 W/m² | - |
| 1777564334 | 11.11° C | 94% | 1007.7 hPa | 0 mm | - | 268 W/m² | - |
| 1777564030 | 11.11° C | 95% | 1007.6 hPa | 0 mm | - | 215 W/m² | - |
| 1777563726 | 10.56° C | 95% | 1007.6 hPa | 0 mm | - | 220 W/m² | - |
| 1777563422 | 10.56° C | 95% | 1007.9 hPa | 0 mm | - | 142 W/m² | - |
| 1777563117 | 10.56° C | 96% | 1008 hPa | 0 mm | - | 99 W/m² | - |
| 1777562812 | 10.56° C | 95% | 1008 hPa | 0 mm | - | 70 W/m² | - |
| 1777562511 | 10.56° C | 96% | 1008 hPa | 0 mm | - | 151 W/m² | - |
| 1777562208 | 10° C | 96% | 1007.9 hPa | 0 mm | - | 192 W/m² | - |
| 1777561906 | 10° C | 97% | 1008 hPa | 0 mm | - | 128 W/m² | - |
| 1777561602 | 10° C | 97% | 1007.7 hPa | 1.27 mm | - | 113 W/m² | - |
| 1777561298 | 10° C | 97% | 1007.8 hPa | 1.27 mm | - | 96 W/m² | - |
| 1777560998 | 10° C | 98% | 1007.7 hPa | 0 mm | - | 97 W/m² | - |
| 1777560693 | 10° C | 98% | 1007.8 hPa | 0 mm | - | 104 W/m² | - |
* Rain latest hour (hover to see other rain measurements)
** Current wind speed in m/s (hover to see current wind gust speed)